Terminal Aerodrome Forecast
Issued by NWS State College, PA

Home | Current Version | Previous Version | Text Only | Print | Product List | Glossary On
Versions: 1 2 3 4 5 6 7 8 9 10 11 12 13 14 15 16 17 18 19 20 21 22 23 24 25 26 27 28 29 30 31 32 33 34 35 36 37 38 39 40 41 42 43 44 45 46 47 48 49 50
000
FTUS41 KCTP 211328 AAB
TAFMDT
TAF AMD
KMDT 211328Z 2113/2212 VRB05KT 2SM BR BKN050
     FM211400 28005KT 3SM BR OVC050
     FM211800 30007KT P6SM VCSH BKN040
     FM220900 32008G15KT P6SM VCSH OVC035=

USA.gov is the U.S. government's official web portal to all federal, state and local government web resources and services.